Tracking 18987 objects as of 25-Feb-2018
HD Live streaming from Space Station
objects crossing your sky now

IRIDIUM 12

Track IRIDIUM 12 now!
10-day predictions
IRIDIUM 12 is classified as:


NORAD ID: 24837
Int'l Code: 1997-030B
Perigee: 783.4 km
Apogee: 786.2 km
Inclination: 86.4 °
Period: 100.4 minutes
Semi major axis: 7155 km
RCS: 3.97 m2 (large)
Launch date: June 18, 1997
Source: United States (US)
Launch site: TYURATAM MISSILE AND SPACE COMPLEX (TTMTR)
aabbcc
Your satellite tracking list
Your tracking list is empty




NASA's NSSDC Master Catalog

Two Line Element Set (TLE):
1 24837U 97030B   18056.57861521 -.00000061 +00000-0 -28963-4 0  9999
2 24837 086.3930 244.1277 0002007 086.5497 353.6938 14.34215778083268
Source of the keplerian elements: AFSPC